Tracking 21094 objects as of 12-Aug-2020
HD Live streaming from Space Station
objects crossing your sky now
Track the most recent launched group of Starlink satellites

ATLAS 2AS CENTAUR R/B

Track ATLAS 2AS CENTAUR R/B now!
10-day predictions


NORAD ID: 26072
Int'l Code: 2000-007B
Perigee: 263.3 km
Apogee: 9,160.5 km
Inclination: 18.1 °
Period: 193.5 minutes
Semi major axis: 11082 km
RCS: 16.571 m2 (large)
Launch date: February 3, 2000
Source: United States (US)
Launch site: AIR FORCE EASTERN TEST RANGE (AFETR)

Note: This is a ROCKET BODY
aabbcc
Your satellite tracking list
Your tracking list is empty




NASA's NSSDC Master Catalog

Two Line Element Set (TLE):
1 26072U 00007B   20224.87279148  .00006338  00000-0  27393-3 0  9997
2 26072  18.1161  19.0308 4013942 328.3191  12.7775  7.44083613422203
Source of the keplerian elements: AFSPC